Location: Arrodets-la-Barthe
(43.0306°N, 0.2829°E)
Time: 05:23:10
(UTC+00:00)

Cosmos 2278 - Pass Details

Date: 29 May 2022
Orbit: 838 x 854 km, 71.1° (Epoch: 03 July)

Event Time Altitude Azimuth Distance (km) Brightness Sun altitude
Rises 22:33:38 0° 259° (W) 3,394 7.0 -22.5°
Reaches altitude 10° 22:37:17 10° 283° (WNW) 2,467 6.5 -22.7°
Maximum altitude 22:40:20 15° 316° (NW) 2,159 6.6 -22.9°
Drops below altitude 10° 22:43:25 10° 349° (N) 2,479 7.2 -23.1°
Sets 22:47:07 0° 13° (NNE) 3,422 7.8 -23.3°
